Location: Peterborough
(44.3091°N, 78.3197°W)
Time: 04:38:31
(UTC-04:00)

A-11 Canister half - Pass Details

Date: 24 March 2023
Orbit: 1513 x 1686 km, 47.2° (Epoch: 08 June)

Event Time Altitude Azimuth Distance (km) Brightness Sun altitude
Exits shadow 02:05:48 50° 72° (ENE) 2,064 9.6 -43.2°
Drops below altitude 10° 02:12:49 10° 87° (E) 3,948 11.3 -42.8°
Sets 02:16:00 0° 89° (E) 4,928 11.9 -42.7°
